Wind_Speed
3 3 3 4 4 4 3 4 5 5 5 6 6 6 7 7 7 7 8 9 9 9 9 10 10 11 11 11 10 11 11 11 11 10 10 10 12 13 13 12 11 11 11
3 3 3 3 3 3 3 3 4 5 5 5 6 6 7 7 7 7 7 8 8 9 9 9 9 10 11 11 11 10 10 10 10 10 10 11 11 12 12 12 12 12 11
3 3 3 3 3 3 3 3 3 4 4 5 5 5 5 5 5 6 6 7 8 8 9 9 9 10 10 10 10 10 10 10 9 10 10 10 11 12 12 12 12 12 12
3 3 3 2 2 3 3 3 3 4 3 3 4 3 3 4 4 6 6 7 7 7 8 8 9 8 9 9 9 9 9 9 9 10 10 10 11 11 12 12 12 13 13
3 3 3 2 2 2 2 3 4 3 3 2 2 2 3 3 3 4 4 4 5 6 7 7 7 7 7 7 8 8 8 9 9 9 9 10 11 11 11 12 12 12 12
3 3 3 2 2 2 3 3 3 3 3 3 2 2 2 2 2 2 3 3 3 4 5 6 6 6 6 6 7 7 7 8 8 8 9 9 10 10 11 11 12 12 12
3 3 3 2 2 2 3 3 3 3 3 2 2 1 1 2 2 1 2 2 3 4 4 5 6 6 6 7 7 7 7 7 7 8 9 9 10 10 10 11 11 11 11
3 2 2 2 2 2 3 3 3 3 2 3 2 1 1 1 2 2 2 3 4 4 4 5 6 6 6 7 7 7 7 7 7 7 8 9 9 10 10 10 10 11 11
3 2 2 2 2 3 3 3 3 2 2 2 2 2 2 2 2 2 3 3 3 4 4 5 5 5 6 6 7 7 7 7 8 8 8 8 9 9 9 9 10 11 11
2 2 2 3 3 3 3 2 2 3 2 3 3 3 3 3 3 3 4 4 4 4 4 4 4 5 5 5 6 6 6 6 7 8 9 8 9 9 9 10 10 10 11
2 2 2 2 3 3 3 2 3 3 3 3 4 4 4 4 4 4 4 5 5 5 5 5 5 6 5 5 6 6 7 8 8 8 8 8 8 9 9 10 10 11 11
2 2 2 2 2 2 2 2 3 3 4 4 4 4 4 4 4 5 5 6 6 6 6 6 6 7 6 7 7 7 8 8 8 8 8 8 8 9 9 10 11 11 12
3 3 3 2 2 3 3 2 3 3 4 4 4 4 4 4 4 4 6 6 6 6 6 6 7 7 7 7 7 8 8 8 8 8 8 8 8 9 10 11 11 11 11
4 3 3 3 3 3 3 3 3 3 3 3 4 4 4 4 5 5 5 5 5 6 6 6 7 7 6 7 7 8 8 8 8 8 8 9 9 10 10 11 11 11 12
5 4 4 4 4 4 3 3 3 3 3 3 3 3 4 5 5 5 5 5 5 5 6 7 7 7 7 7 7 7 8 9 9 9 9 10 11 11 12 12 12 13 13
6 5 5 5 4 4 4 3 3 3 3 3 4 5 5 5 5 5 5 5 5 5 6 6 7 6 7 8 8 9 9 10 10 10 11 11 12 12 13 13 13 14 15
6 6 5 5 5 5 5 5 4 4 4 5 5 5 5 5 5 5 5 5 6 6 7 7 7 7 8 9 9 9 10 11 11 12 12 13 13 14 15 15 15 15 15
7 7 7 6 6 6 6 5 5 5 5 5 5 5 5 5 6 6 6 7 7 8 8 8 8 8 9 9 10 11 11 12 13 13 13 14 15 15 16 16 16 16 17
9 8 8 8 7 7 7 7 6 6 6 6 6 6 6 6 7 7 7 7 8 9 9 9 9 10 10 11 12 13 13 13 13 14 15 15 15 16 16 17 17 18 18
10 9 9 9 9 8 8 8 8 7 7 7 7 7 7 7 7 8 8 8 9 10 10 11 11 12 12 13 13 14 14 14 14 14 15 16 16 17 17 18 19 20 20
11 10 10 10 10 10 9 9 8 8 8 8 8 8 9 9 9 9 10 10 11 11 11 12 12 13 13 14 14 15 15 15 16 16 17 17 18 18 19 20 20 21 22
13 12 12 11 10 10 10 9 9 9 9 9 10 10 10 10 11 11 12 12 12 12 12 13 13 13 13 14 15 15 16 16 17 17 18 19 20 20 21 22 22 23 24
14 14 13 13 12 12 11 11 11 11 11 11 11 11 12 11 12 13 13 13 13 13 14 14 14 14 15 16 16 17 18 18 19 19 20 21 22 23 23 24 24 25 25
16 15 15 14 13 13 13 13 13 12 12 12 12 12 12 13 13 13 14 14 14 15 15 15 16 17 17 18 19 19 20 21 21 21 22 23 24 25 26 26 27 27 28
16 16 16 15 15 14 14 14 14 13 13 13 14 14 14 14 15 15 15 15 16 16 17 17 18 19 20 20 21 22 22 23 23 24 24 25 25 26 28 29 29 30 30
18 18 17 17 16 16 16 16 15 14 14 14 15 15 16 16 16 16 17 17 17 18 19 19 20 21 22 22 23 23 24 25 25 26 26 27 28 29 29 30 31 32 33
Wind_Direction
292 291 279 267 255 247 250 256 248 245 239 243 248 253 252 252 253 249 243 241 244 246 249 253 253 254 258 262 265 264 264 263 265 269 267 260 256 253 256 257 261 268 273
305 304 283 271 248 237 246 251 252 252 246 252 255 254 245 243 246 248 244 239 240 245 249 251 253 256 258 262 264 267 265 265 267 270 270 266 262 260 258 260 262 266 272
291 293 291 284 255 244 243 244 250 264 256 253 258 252 245 237 238 245 246 245 244 245 249 254 256 258 261 264 266 264 268 270 270 270 270 268 265 262 261 262 265 268 272
284 293 292 282 271 253 243 244 250 265 251 250 254 246 242 246 246 243 245 248 249 251 255 257 259 261 267 266 269 268 267 269 270 269 269 269 266 264 264 266 267 269 272
279 292 290 275 261 251 241 240 246 256 248 252 262 252 238 244 243 237 236 243 251 254 254 253 260 266 270 269 271 272 271 272 270 272 273 272 269 266 267 268 268 269 273
282 289 280 259 243 249 246 246 247 242 235 240 257 267 247 233 223 244 241 253 254 260 257 259 265 267 270 274 278 277 275 277 277 276 274 274 273 269 268 268 270 270 274
287 282 262 246 248 253 253 244 233 232 229 227 246 257 235 222 221 225 237 262 264 265 265 266 274 274 274 272 278 282 280 282 281 279 276 273 274 272 269 269 271 271 274
282 276 243 229 234 241 245 234 233 234 226 224 239 240 206 240 248 245 262 282 283 277 274 273 277 284 277 272 275 284 281 279 278 278 278 280 280 275 271 270 271 272 275
274 250 236 229 229 227 233 237 232 231 225 233 233 232 227 260 270 265 275 294 297 286 283 281 287 291 288 282 281 283 278 284 282 280 281 285 282 281 279 277 274 275 279
255 239 234 230 227 228 236 236 233 237 245 247 247 248 248 256 269 280 281 290 298 296 292 291 295 301 293 290 286 285 289 295 293 290 289 291 290 289 289 286 283 280 282
235 228 221 218 227 232 239 246 240 245 254 257 256 255 260 260 263 275 277 284 290 292 295 298 300 302 299 304 303 295 296 297 297 295 295 294 293 293 293 292 290 288 288
234 224 211 216 230 228 228 248 248 254 258 262 262 261 264 264 262 271 274 284 291 292 292 293 290 292 294 297 297 298 300 303 298 294 293 293 291 292 295 295 294 293 293
232 227 222 229 245 240 238 246 253 265 264 262 260 266 269 269 271 279 281 286 289 292 294 293 292 295 297 297 294 293 297 300 296 295 297 298 297 294 296 297 296 297 297
235 229 233 246 251 244 244 258 268 276 268 261 254 262 269 274 279 286 295 296 293 293 294 294 296 301 304 305 302 297 297 299 295 296 297 299 299 299 300 299 298 298 299
238 237 245 252 250 238 240 255 266 275 272 261 254 257 270 280 286 290 300 303 302 301 299 296 296 295 298 304 305 303 301 299 296 295 296 297 300 302 302 301 298 298 299
245 244 246 249 245 237 244 252 269 279 273 262 263 269 276 282 285 291 300 303 306 308 308 303 298 300 302 305 305 307 306 305 304 298 297 297 299 301 302 302 300 301 301
248 242 241 244 245 245 255 259 268 272 275 270 269 273 279 284 280 282 292 299 306 310 313 308 304 303 304 307 311 309 307 307 305 301 299 299 299 300 302 301 300 299 299
247 248 248 250 251 254 261 264 271 272 275 273 271 272 276 281 283 281 286 294 302 307 311 308 305 308 309 310 310 308 306 307 304 303 301 302 302 301 302 300 299 298 298
246 250 252 255 255 256 262 267 270 269 269 271 273 271 273 278 279 281 284 290 297 302 306 307 306 307 306 306 308 307 304 304 304 302 301 301 300 300 300 300 298 297 297
245 250 256 257 258 261 262 263 264 266 266 270 271 272 275 277 278 281 285 289 294 297 299 303 305 304 304 304 304 305 304 303 303 304 304 302 301 303 299 300 298 298 301
250 252 255 257 260 261 261 261 262 264 268 273 275 280 281 278 279 280 283 287 291 293 295 298 301 303 304 304 306 305 305 303 301 302 303 303 303 302 302 302 300 301 302
254 256 259 259 259 258 259 262 266 269 274 276 278 278 279 280 280 281 285 288 290 294 296 297 299 302 304 306 306 307 306 304 302 303 304 304 303 303 303 303 302 302 301
254 256 258 258 256 256 256 260 266 270 274 275 277 279 278 280 283 285 290 292 292 294 296 297 298 299 301 303 304 305 304 302 301 302 302 303 303 303 303 303 302 305 305
254 254 256 257 257 257 258 262 265 271 273 276 280 281 280 282 282 285 288 291 292 293 294 295 296 298 300 301 302 302 302 300 300 300 300 301 302 302 303 303 303 303 303
254 254 255 256 258 258 259 262 266 269 273 276 279 281 280 281 282 284 288 291 291 291 293 294 294 296 298 299 300 300 300 300 299 298 298 299 300 301 302 302 302 301 302
253 253 254 255 257 259 259 262 265 269 274 277 279 280 283 282 282 283 286 290 292 293 295 296 296 296 299 300 300 300 300 300 300 299 299 299 300 300 300 300 300 300 301
Height
5856 5856 5855 5855 5855 5855 5855 5855 5855 5855 5856 5856 5856 5857 5857 5857 5858 5858 5859 5859 5860 5861 5862 5862 5863 5863 5864 5864 5865 5865 5865 5865 5865 5865 5863 5863 5864 5865 5866 5867 5867 5868 5868
5855 5855 5855 5855 5854 5854 5854 5854 5854 5855 5855 5855 5855 5855 5856 5856 5857 5857 5858 5858 5859 5859 5860 5860 5861 5861 5862 5862 5862 5863 5863 5863 5862 5862 5862 5862 5862 5863 5864 5864 5865 5865 5865
5855 5854 5854 5854 5854 5854 5854 5854 5854 5854 5854 5854 5854 5854 5855 5855 5855 5856 5856 5857 5857 5858 5858 5859 5859 5859 5860 5860 5860 5860 5860 5860 5860 5860 5860 5860 5860 5861 5861 5862 5862 5862 5862
5854 5854 5853 5853 5853 5853 5853 5853 5853 5853 5854 5854 5853 5853 5853 5854 5854 5854 5855 5855 5856 5856 5857 5857 5857 5858 5858 5858 5858 5858 5858 5858 5858 5858 5858 5858 5858 5858 5859 5859 5859 5859 5859
5853 5853 5853 5852 5852 5852 5852 5853 5853 5853 5853 5853 5853 5853 5853 5853 5853 5853 5854 5854 5854 5855 5855 5856 5856 5856 5856 5856 5856 5856 5856 5856 5856 5856 5856 5856 5855 5856 5856 5856 5856 5856 5856
5852 5852 5852 5852 5851 5851 5852 5852 5852 5852 5852 5853 5853 5852 5852 5852 5853 5853 5853 5853 5854 5854 5854 5854 5854 5854 5854 5854 5854 5854 5854 5854 5853 5853 5853 5853 5853 5853 5853 5853 5853 5853 5853
5852 5851 5851 5851 5851 5851 5851 5851 5852 5852 5852 5852 5852 5852 5852 5852 5852 5852 5852 5853 5853 5853 5852 5853 5853 5853 5853 5852 5852 5852 5852 5852 5851 5851 5851 5851 5851 5850 5850 5850 5850 5850 5850
5851 5851 5850 5851 5851 5851 5851 5851 5851 5851 5851 5852 5852 5852 5852 5852 5852 5852 5852 5852 5852 5852 5852 5851 5851 5851 5851 5851 5851 5850 5850 5850 5849 5849 5848 5848 5848 5847 5847 5847 5847 5847 5847
5850 5850 5850 5850 5850 5851 5851 5851 5851 5851 5851 5851 5851 5852 5852 5852 5852 5852 5851 5851 5851 5851 5850 5850 5850 5850 5850 5849 5849 5849 5848 5848 5847 5847 5846 5846 5845 5845 5844 5844 5844 5844 5844
5849 5850 5849 5850 5850 5850 5850 5850 5850 5850 5850 5850 5850 5851 5851 5851 5851 5851 5851 5850 5850 5850 5849 5849 5849 5849 5848 5848 5847 5847 5847 5846 5845 5845 5844 5843 5843 5842 5842 5841 5841 5841 5841
5849 5849 5849 5849 5849 5850 5850 5850 5850 5850 5850 5850 5850 5850 5850 5850 5850 5850 5850 5849 5849 5848 5848 5848 5847 5847 5847 5846 5846 5845 5845 5844 5843 5843 5842 5841 5841 5840 5840 5839 5839 5838 5838
5849 5849 5849 5849 5849 5849 5849 5849 5849 5849 5849 5849 5849 5849 5849 5849 5849 5849 5849 5848 5848 5847 5847 5846 5846 5846 5845 5845 5844 5844 5843 5842 5842 5841 5840 5839 5839 5838 5837 5837 5836 5836 5835
5848 5848 5848 5848 5848 5848 5848 5848 5848 5848 5848 5848 5848 5848 5848 5848 5847 5847 5847 5847 5846 5846 5845 5845 5845 5844 5843 5843 5842 5842 5841 5840 5839 5839 5838 5838 5837 5836 5835 5834 5833 5833 5832
5848 5848 5848 5848 5848 5848 5848 5848 5848 5848 5847 5847 5846 5846 5846 5846 5846 5846 5846 5845 5845 5845 5844 5844 5843 5842 5842 5841 5840 5840 5839 5838 5837 5837 5836 5835 5835 5833 5832 5831 5831 5830 5829
5847 5847 5847 5847 5847 5847 5847 5847 5847 5847 5846 5846 5846 5845 5845 5845 5845 5845 5844 5844 5844 5843 5843 5842 5842 5841 5840 5840 5839 5838 5837 5836 5835 5834 5834 5833 5832 5831 5830 5829 5828 5827 5826
5846 5846 5846 5846 5846 5846 5846 5846 5846 5846 5845 5845 5844 5844 5844 5844 5844 5843 5843 5843 5842 5842 5841 5840 5840 5839 5839 5838 5837 5836 5835 5834 5833 5832 5831 5830 5829 5828 5827 5826 5825 5824 5823
5844 5845 5845 5845 5845 5845 5845 5845 5845 5844 5844 5844 5843 5843 5843 5843 5843 5842 5842 5842 5841 5841 5840 5839 5838 5838 5837 5836 5835 5834 5833 5832 5831 5830 5829 5827 5826 5825 5824 5823 5822 5820 5819
5843 5843 5844 5844 5844 5844 5844 5844 5844 5843 5843 5842 5842 5842 5842 5841 5841 5841 5841 5841 5840 5839 5838 5838 5837 5836 5835 5834 5833 5832 5830 5829 5828 5827 5826 5824 5823 5822 5820 5819 5817 5816 5815
5841 5842 5842 5842 5842 5842 5842 5842 5842 5842 5841 5841 5841 5841 5840 5840 5840 5840 5840 5839 5838 5838 5837 5836 5835 5834 5833 5832 5830 5829 5828 5826 5825 5824 5822 5821 5820 5818 5817 5815 5813 5812 5810
5839 5840 5840 5840 5841 5841 5841 5840 5840 5840 5840 5840 5839 5839 5839 5838 5838 5838 5838 5837 5836 5836 5835 5834 5833 5831 5830 5829 5827 5826 5825 5823 5822 5821 5819 5818 5816 5815 5813 5811 5809 5808 5806
5837 5837 5838 5838 5838 5838 5838 5838 5838 5838 5838 5838 5837 5837 5837 5836 5836 5836 5835 5835 5834 5833 5832 5831 5830 5829 5827 5826 5825 5823 5822 5820 5819 5817 5816 5814 5812 5810 5808 5807 5805 5803 5801
5834 5835 5835 5836 5836 5836 5836 5836 5836 5836 5836 5836 5835 5835 5834 5834 5834 5833 5833 5832 5831 5830 5829 5828 5827 5826 5824 5823 5821 5820 5818 5816 5815 5813 5811 5809 5807 5806 5803 5801 5799 5797 5795
5831 5832 5832 5833 5833 5833 5833 5833 5833 5833 5833 5833 5833 5832 5832 5831 5831 5830 5830 5829 5828 5827 5826 5825 5824 5822 5821 5819 5818 5816 5814 5812 5811 5809 5806 5804 5802 5800 5798 5795 5793 5790 5788
5827 5828 5829 5829 5830 5830 5830 5830 5830 5830 5830 5830 5830 5829 5829 5828 5828 5827 5827 5826 5825 5824 5822 5821 5820 5819 5817 5815 5813 5811 5809 5807 5806 5803 5801 5799 5796 5794 5791 5789 5786 5784 5781
5823 5824 5825 5825 5826 5826 5827 5827 5827 5827 5827 5827 5826 5826 5825 5825 5824 5824 5823 5822 5821 5820 5818 5817 5816 5814 5812 5810 5808 5806 5804 5802 5800 5798 5795 5793 5790 5788 5785 5782 5779 5776 5773
5819 5820 5820 5821 5822 5822 5823 5823 5823 5823 5823 5823 5823 5822 5822 5821 5820 5819 5819 5818 5817 5815 5814 5813 5811 5809 5807 5805 5803 5801 5798 5796 5793 5791 5788 5786 5783 5780 5778 5775 5771 5768 5765